{"data":{"norad_id":69886,"epoch":"2026-09-19T23:57:18.260064Z","epoch_age_seconds":65044,"freshness":"FRESH","line1":"1 69886U 26156T   26262.99812801  .00000810  00000+0  86349-4 0  9995","line2":"2 69886  97.7467 162.2120 0005860 272.6050  87.4498 14.91571231 11123","mean_motion":14.91571231,"eccentricity":0.000586,"inclination_deg":97.7467,"raan_deg":162.212,"arg_perigee_deg":272.605,"mean_anomaly_deg":87.4498,"bstar":8.6349e-5,"rev_number":1112,"period_min":96.542489562136,"perigee_km":588.95060347692,"apogee_km":597.12081789385,"semimajor_km":6971.1727106854,"source":"CELESTRAK","updated_at":"2026-09-20T09:00:25.167193Z"}}